Tracking 29933 objects as of 3-Dec-2024
HD Live streaming from Space Station
objects crossing your sky now

ONEWEB-0658

Track ONEWEB-0658 now!
10-day predictions
ONEWEB-0658 is classified as:


NORAD ID: 55819
Int'l Code: 2023-029Z
Perigee: 1,192.0 km
Apogee: 1,193.8 km
Inclination: 87.9 °
Period: 109.1 minutes
Semi major axis: 7563 km
RCS: Unknown
Launch date: March 9, 2023
Source: United Kingdom (UK)
Launch site: AIR FORCE EASTERN TEST RANGE (AFETR)
Your satellite tracking list
Your tracking list is empty




NASA's NSSDC Master Catalog

Two Line Element Set (TLE):
1 55819U 23029Z   24337.64488922  .00000168  00000-0  38846-3 0  9993
2 55819  87.9185  56.5800 0001230  90.7084 269.4189 13.19725561 84850
Source of the keplerian elements: AFSPC